Voltar ao catálogo

FENGYUN 1C DEB

AtivoSSO
NORAD 30689·DEBRIS·🇨🇳 China

Lançado May 10, 1999 de Taiyuan Satellite Launch Center

Loading…

Próximas Passagens (próximas 24 horas)

TLE

AtualizadoSource: Space-Track

Época: Sep 14, 2026, 11:07 UTC

1 30689U 99025AQX 26257.46379846  .00000467  00000-0  26180-3 0  9997
2 30689  98.7338 241.2374 0111209  40.0718 110.5982 14.12158042  7734

Acompanhe FENGYUN 1C DEB em tempo real com AllMySat

Download on the App Store